Flag for Canada Weather past 2 weeks in Cornwall, Ontario, Canada

Now
57 °F

Cool.


Feels Like: 56 °F
Forecast: 52 / 71 °F
Wind: 7 mph from West

Location: St Anicet

Current Time: Jul 29, 2014 at 8:57:52 AM

Latest Report: Jul 29, 2014 at 8:00 AM


Visibility: N/A

Pressure: 29.79 "Hg

Humidity: 86%

Dew point: 53 °F

Location of CornwallLocation

Historic Weather in Cornwall — Graph

°F

Cornwall temperature yesterday

Maximum temperature yesterday: 66 °F (at 12:00 AM)
Minimum temperature yesterday: 60 °F (at 6:00 PM)
Average temperature yesterday: 63 °F

Past Weeks' High & Low Weather Summary

 TemperatureHumidityPressure
High85 °F (Jul 21, 3:00 PM)100% (Jul 16, 12:00 AM)30.26 "Hg (Jul 16, 12:00 AM)
Low51 °F (Jul 19, 5:00 AM)37% (Jul 18, 4:00 PM)29.58 "Hg (Jul 27, 5:00 PM)
Average69 °F76%29.90 "Hg
* Reported Jul 14 7:00 AM — Jul 29 7:00 AM, Cornwall, Weather by CustomWeather, © 2014

Note: Actual official high and low records may vary slightly from our data, if they occured in-between our weather recording intervals... More about our weather records

Advertising

Cornwall weather history for previous 24 hours

 ConditionsComfort  
Time TempWeatherWind HumidityBarometerVisibility
7:00 AM
Jul 29
55 °FCool.5 mph91%29.77 "HgN/A
6:00 AM52 °FCool.3 mph94%29.76 "HgN/A
5:00 AM54 °FCool.5 mph90%29.74 "HgN/A
4:00 AM56 °FCool.5 mph87%29.71 "HgN/A
3:00 AM57 °FCool.7 mph85%29.70 "HgN/A
2:00 AM58 °FCool.7 mph82%29.70 "HgN/A
1:00 AM59 °FCool.6 mph85%29.69 "HgN/A
12:00 AM60 °FCool.7 mph87%29.68 "HgN/A
11:00 PM
Jul 28
61 °FCool.5 mph94%29.68 "HgN/A
10:00 PM60 °FCool.3 mph93%29.67 "HgN/A
9:00 PM60 °FCool.2 mph94%29.66 "HgN/A
8:00 PM61 °FCool.5 mph95%29.64 "HgN/A
7:00 PM61 °FCool.8 mph93%29.64 "HgN/A
6:00 PM60 °FCool.6 mph100%29.63 "HgN/A
4:00 PM63 °FMild.7 mph93%29.60 "HgN/A
3:00 PM63 °FMild.7 mph92%29.59 "HgN/A
2:00 PM62 °FCool.10 mph92%29.60 "HgN/A
1:00 PM62 °FMild.8 mph93%29.60 "HgN/A
12:00 PM63 °FMild.7 mph93%29.62 "HgN/A
11:00 AM63 °FMild.10 mph92%29.61 "HgN/A
10:00 AM63 °FMild.9 mph91%29.62 "HgN/A
9:00 AM64 °FMild.10 mph88%29.65 "HgN/A
8:00 AM64 °FMild.5 mph90%29.64 "HgN/A
Weather by CustomWeather, © 2014

See weather overviewHow to use our weather pages